Regional Weather Roundup
Issued by NWS

Home | Current Version | Previous Version | Graphics & Text | Print | Product List | Glossary On
Versions: 1 2 3 4 5 6 7 8 9 10 11 12 13 14 15 16 17 18 19 20 21 22 23 24 25 26 27 28 29 30 31 32 33 34 35 36 37 38 39 40 41 42 43 44 45 46 47 48 49 50
000
ASUS43 KBIS 270302
RWRND

NORTH DAKOTA REGIONAL WEATHER ROUNDUP
NATIONAL WEATHER SERVICE BISMARCK ND
900 PM CST SUN FEB 26 2017

NOTE: "FAIR" INDICATES FEW OR NO CLOUDS BELOW 12,000 FEET WITH NO
SIGNIFICANT WEATHER AND/OR OBSTRUCTIONS TO VISIBILITY.


NDZ001>003-009>011-017-270400-
NORTHWEST NORTH DAKOTA

CITY           SKY/WX    TMP DP  RH WIND       PRES   REMARKS
WILLISTON      CLOUDY    22  17  81 SW5       29.81S WCI  16
MINOT          CLOUDY    17  11  77 SW9       29.80S WCI   6
MINOT AFB      FAIR      15  10  82 W10       29.80R WCI   2
$$

NDZ018>021-031>035-040>046-270400-
SOUTHWEST NORTH DAKOTA

CITY           SKY/WX    TMP DP  RH WIND       PRES   REMARKS
BISMARCK       FAIR      18  13  80 NE5       29.85S WCI  11
DICKINSON      FAIR      13   8  81 CALM      29.77S
GARRISON         N/A      9   5  84 CALM      29.82R
HETTINGER ARPT FAIR      18  16  92 N5        29.79S WCI  11
$$

NDZ004>008-012>016-024-026-027-054-270400-
NORTHEAST NORTH DAKOTA

CITY           SKY/WX    TMP DP  RH WIND       PRES   REMARKS
GRAND FORKS    FAIR       9   1  70 SW7       29.89S WCI  -2
GRND FRKS AFB  FAIR       6   1  83 SW6       29.89S WCI  -5
DEVILS LAKE    FAIR       4   1  88 W6        29.85S WCI  -7
$$

NDZ022-023-025-028>030-036>039-047>053-270400-
SOUTHEAST NORTH DAKOTA

CITY           SKY/WX    TMP DP  RH WIND       PRES   REMARKS
FARGO          MOCLDY    19  11  70 SE3       29.90R
JAMESTOWN      CLOUDY    21  15  78 CALM      29.84R
$$





USA.gov is the U.S. government's official web portal to all federal, state and local government web resources and services.